Year,Month,Day,Hour,Minute,Value (Times are PST for barometer in hPa)
2024,02,27,00,17,935.39
2024,02,27,00,18,935.42
2024,02,27,00,19,935.93
2024,02,27,00,20,935.93
2024,02,27,00,21,935.95
2024,02,27,00,22,936.30
2024,02,27,00,23,936.30
2024,02,27,00,24,936.30
2024,02,27,00,25,936.30
2024,02,27,00,26,936.30
2024,02,27,00,27,936.30
2024,02,27,00,28,936.30
2024,02,27,00,29,936.30
2024,02,27,00,30,936.30
2024,02,27,00,31,936.30
2024,02,27,00,32,936.30
2024,02,27,00,33,936.30
2024,02,27,00,34,936.30
2024,02,27,00,35,936.30
2024,02,27,00,36,936.30
2024,02,27,00,37,936.30
2024,02,27,00,38,936.30
2024,02,27,00,39,936.30
2024,02,27,00,40,936.30
2024,02,27,00,41,936.30
2024,02,27,00,42,936.30
2024,02,27,00,43,936.30
2024,02,27,00,44,936.30
2024,02,27,00,45,936.30
2024,02,27,00,46,936.30
2024,02,27,00,47,936.30
2024,02,27,00,48,936.30
2024,02,27,00,49,936.30
2024,02,27,00,50,936.30
2024,02,27,00,51,936.30
2024,02,27,00,52,936.30
2024,02,27,00,53,936.30
2024,02,27,00,54,936.30
2024,02,27,00,55,936.30
2024,02,27,00,56,936.30
2024,02,27,00,57,936.30
2024,02,27,00,58,936.30
2024,02,27,00,59,936.30
2024,02,27,01,00,936.30
2024,02,27,01,01,936.30
2024,02,27,01,02,936.30
2024,02,27,01,03,936.30
2024,02,27,01,04,936.30
2024,02,27,01,05,936.30
2024,02,27,01,06,936.30
2024,02,27,01,07,936.30
2024,02,27,01,08,936.30
2024,02,27,01,09,936.30
2024,02,27,01,10,936.30
2024,02,27,01,11,936.30
2024,02,27,01,12,936.30
2024,02,27,01,13,936.30
2024,02,27,01,14,936.30
2024,02,27,01,15,936.30
2024,02,27,01,16,936.30
2024,02,27,01,17,936.30
2024,02,27,01,18,936.05
2024,02,27,01,19,931.26
2024,02,27,01,20,930.65
2024,02,27,01,21,930.65
2024,02,27,01,22,930.65
2024,02,27,01,23,930.65
2024,02,27,01,24,930.65
2024,02,27,01,25,930.65
2024,02,27,01,26,930.62
2024,02,27,01,27,930.04
2024,02,27,01,28,930.04
2024,02,27,01,29,930.04
2024,02,27,01,30,930.04
2024,02,27,01,31,930.04
2024,02,27,01,32,930.04
2024,02,27,01,33,930.04
2024,02,27,01,34,930.04
2024,02,27,01,35,930.04
2024,02,27,01,36,930.04
2024,02,27,01,37,930.04
2024,02,27,01,38,930.04
2024,02,27,01,39,930.50
2024,02,27,01,40,939.28
2024,02,27,01,41,939.28
2024,02,27,01,42,939.28
2024,02,27,01,43,939.28
2024,02,27,01,44,939.28
2024,02,27,01,45,939.28
2024,02,27,01,46,940.80
2024,02,27,01,47,969.63
2024,02,27,01,48,969.63
2024,02,27,01,49,969.63
2024,02,27,01,50,969.63
2024,02,27,01,51,969.63
2024,02,27,01,52,969.63
2024,02,27,01,53,969.76
2024,02,27,01,54,972.30
2024,02,27,01,55,972.30
2024,02,27,01,56,972.30
2024,02,27,01,57,972.30
2024,02,27,01,58,972.30
2024,02,27,01,59,972.30
2024,02,27,02,00,972.30
2024,02,27,02,01,972.30
2024,02,27,02,02,972.30
2024,02,27,02,03,972.30
2024,02,27,02,04,972.30
2024,02,27,02,05,972.30
2024,02,27,02,06,972.30
2024,02,27,02,07,972.30
2024,02,27,02,08,972.30
2024,02,27,02,09,972.30
2024,02,27,02,10,972.30
2024,02,27,02,11,971.51
2024,02,27,02,12,956.49
2024,02,27,02,13,956.49
2024,02,27,02,14,956.49
2024,02,27,02,15,956.49
2024,02,27,02,16,956.49
2024,02,27,02,17,956.49
2024,02,27,02,18,956.49
2024,02,27,02,19,956.49
2024,02,27,02,20,956.49
2024,02,27,02,21,956.49
2024,02,27,02,22,957.01
2024,02,27,02,23,966.92
2024,02,27,02,24,966.92
2024,02,27,02,25,966.92
2024,02,27,02,26,966.92
2024,02,27,02,27,966.92
2024,02,27,02,28,966.92
2024,02,27,02,29,966.92
2024,02,27,02,30,966.92
2024,02,27,02,31,966.92
2024,02,27,02,32,966.92
2024,02,27,02,33,966.92
2024,02,27,02,34,966.92
2024,02,27,02,35,966.92
2024,02,27,02,36,966.92
2024,02,27,02,37,966.92
2024,02,27,02,38,966.92
2024,02,27,02,39,966.92
2024,02,27,02,40,966.92
2024,02,27,02,41,966.92
2024,02,27,02,42,967.51
2024,02,27,02,43,978.73
2024,02,27,02,44,978.73
2024,02,27,02,45,978.73
2024,02,27,02,46,978.73
2024,02,27,02,47,978.73
2024,02,27,02,48,978.73
2024,02,27,02,49,978.73
2024,02,27,02,50,978.73
2024,02,27,02,51,978.73
2024,02,27,02,52,978.73
2024,02,27,02,53,978.73
2024,02,27,02,54,978.73
2024,02,27,02,55,978.73
2024,02,27,02,56,978.73
2024,02,27,02,57,977.98
2024,02,27,02,58,963.70
2024,02,27,02,59,963.70
2024,02,27,03,00,963.70
2024,02,27,03,01,963.70
2024,02,27,03,02,963.70
2024,02,27,03,03,963.70
2024,02,27,03,04,963.70
2024,02,27,03,05,963.70
2024,02,27,03,06,963.70
2024,02,27,03,07,963.70
2024,02,27,03,08,963.70
2024,02,27,03,09,963.70
2024,02,27,03,10,963.70
2024,02,27,03,11,963.70
2024,02,27,03,12,963.70
2024,02,27,03,13,963.70
2024,02,27,03,14,963.70
2024,02,27,03,15,963.70
2024,02,27,03,16,963.70
2024,02,27,03,17,963.70
2024,02,27,03,18,963.70
2024,02,27,03,19,963.70
2024,02,27,03,20,963.70
2024,02,27,03,21,963.70
2024,02,27,03,22,963.70
2024,02,27,03,23,963.70
2024,02,27,03,24,963.70
2024,02,27,03,25,963.70
2024,02,27,03,26,963.70
2024,02,27,03,27,963.70
2024,02,27,03,28,963.70
2024,02,27,03,29,963.70
2024,02,27,03,30,963.70
2024,02,27,03,31,964.07
2024,02,27,03,32,970.67
2024,02,27,03,33,970.67
2024,02,27,03,34,970.67
2024,02,27,03,35,970.67
2024,02,27,03,36,970.67
2024,02,27,03,37,970.67
2024,02,27,03,38,970.67
2024,02,27,03,39,970.67
2024,02,27,03,40,970.67
2024,02,27,03,41,970.67
2024,02,27,03,42,970.67
2024,02,27,03,43,970.67
2024,02,27,03,44,970.67
2024,02,27,03,45,970.67
2024,02,27,03,46,970.67
2024,02,27,03,47,970.67
2024,02,27,03,48,970.67
2024,02,27,03,49,970.59
2024,02,27,03,50,968.98
2024,02,27,03,51,968.98
2024,02,27,03,52,968.98
2024,02,27,03,53,968.98
2024,02,27,03,54,968.98
2024,02,27,03,55,968.98
2024,02,27,03,56,968.98
2024,02,27,03,57,968.98
2024,02,27,03,58,968.98
2024,02,27,03,59,968.98
2024,02,27,04,00,968.98
2024,02,27,04,01,968.98
2024,02,27,04,02,968.98
2024,02,27,04,03,968.98
2024,02,27,04,04,968.98
2024,02,27,04,05,968.98
2024,02,27,04,06,968.98
2024,02,27,04,07,968.98
2024,02,27,04,08,968.98
2024,02,27,04,09,968.98
2024,02,27,04,10,968.98
2024,02,27,04,11,968.98
2024,02,27,04,12,968.98
2024,02,27,04,13,968.98
2024,02,27,04,14,968.98
2024,02,27,04,15,968.98
2024,02,27,04,16,968.92
2024,02,27,04,17,967.76
2024,02,27,04,18,967.76
2024,02,27,04,19,967.76
2024,02,27,04,20,967.76
2024,02,27,04,21,967.76
2024,02,27,04,22,967.76
2024,02,27,04,23,967.76
2024,02,27,04,24,967.76
2024,02,27,04,25,964.07
2024,02,27,04,26,964.07
2024,02,27,04,27,964.07
2024,02,27,04,28,964.07
2024,02,27,04,29,964.07
2024,02,27,04,30,964.21
2024,02,27,04,31,964.21
2024,02,27,04,32,964.21
2024,02,27,04,33,964.21
2024,02,27,04,34,964.21
2024,02,27,04,35,964.21
2024,02,27,04,36,964.21
2024,02,27,04,37,964.21
2024,02,27,04,38,965.27
2024,02,27,04,39,986.36
2024,02,27,04,40,985.81
2024,02,27,04,41,985.81
2024,02,27,04,42,985.81
2024,02,27,04,43,987.27
2024,02,27,04,44,987.27
2024,02,27,04,45,987.27
2024,02,27,04,46,987.27
2024,02,27,04,47,987.27
2024,02,27,04,48,987.27
2024,02,27,04,49,989.71
2024,02,27,04,50,989.71
2024,02,27,04,51,991.37
2024,02,27,04,52,991.37
2024,02,27,04,53,991.37
2024,02,27,04,54,990.49
2024,02,27,04,55,990.49
2024,02,27,04,56,990.49
2024,02,27,04,57,990.68
2024,02,27,04,58,994.55
2024,02,27,04,59,994.55
2024,02,27,05,00,994.55
2024,02,27,05,01,994.55
2024,02,27,05,02,994.55
2024,02,27,05,03,994.55
2024,02,27,05,04,994.55
2024,02,27,05,05,994.55
2024,02,27,05,06,994.55
2024,02,27,05,07,994.55
2024,02,27,05,08,994.55
2024,02,27,05,09,994.55
2024,02,27,05,10,994.55
2024,02,27,05,11,994.55
2024,02,27,05,12,994.55
2024,02,27,05,13,994.55
2024,02,27,05,14,994.55
2024,02,27,05,15,994.55
2024,02,27,05,16,994.55
2024,02,27,05,17,994.55
2024,02,27,05,18,994.55
2024,02,27,05,19,994.55
2024,02,27,05,20,994.55
2024,02,27,05,21,994.55
2024,02,27,05,22,994.55
2024,02,27,05,23,994.55
2024,02,27,05,24,994.55
2024,02,27,05,25,994.55
2024,02,27,05,26,994.55
2024,02,27,05,27,994.55
2024,02,27,05,28,994.55
2024,02,27,05,29,994.55
2024,02,27,05,30,994.55
2024,02,27,05,31,992.25
2024,02,27,05,32,992.25
2024,02,27,05,33,992.25
2024,02,27,05,34,992.25
2024,02,27,05,35,992.25
2024,02,27,05,36,992.25
2024,02,27,05,37,992.25
2024,02,27,05,38,992.25
2024,02,27,05,39,986.05
2024,02,27,05,40,986.05
2024,02,27,05,41,986.05
2024,02,27,05,42,986.05
2024,02,27,05,43,986.05
2024,02,27,05,44,986.05
2024,02,27,05,45,986.05
2024,02,27,05,46,986.05
2024,02,27,05,47,986.05
2024,02,27,05,48,986.05
2024,02,27,05,49,986.05
2024,02,27,05,50,986.05
2024,02,27,05,51,986.05
2024,02,27,05,52,986.05
2024,02,27,05,53,986.05
2024,02,27,05,54,993.57
2024,02,27,05,55,993.57
2024,02,27,05,56,993.57
2024,02,27,05,57,993.57
2024,02,27,05,58,993.57
2024,02,27,05,59,993.57
2024,02,27,06,00,993.57
2024,02,27,06,01,993.57
2024,02,27,06,02,993.57
2024,02,27,06,03,993.57
2024,02,27,06,04,999.49
2024,02,27,06,05,999.49
2024,02,27,06,06,999.49
2024,02,27,06,07,999.49
2024,02,27,06,08,996.55
2024,02,27,06,09,996.55
2024,02,27,06,10,996.55
2024,02,27,06,11,996.55
2024,02,27,06,12,993.26
2024,02,27,06,13,993.26
2024,02,27,06,14,993.26
2024,02,27,06,15,993.26
2024,02,27,06,16,993.26
2024,02,27,06,17,993.26
2024,02,27,06,18,993.26
2024,02,27,06,19,993.26
2024,02,27,06,20,993.26
2024,02,27,06,21,990.32
2024,02,27,06,22,990.21
2024,02,27,06,23,990.21
2024,02,27,06,24,990.21
2024,02,27,06,25,990.21
2024,02,27,06,26,990.21
2024,02,27,06,27,990.21
2024,02,27,06,28,990.21
2024,02,27,06,29,990.21
2024,02,27,06,30,990.21
2024,02,27,06,31,990.21
2024,02,27,06,32,990.21
2024,02,27,06,33,990.21
2024,02,27,06,34,990.21
2024,02,27,06,35,990.21
2024,02,27,06,36,990.21
2024,02,27,06,37,990.21
2024,02,27,06,38,990.21
2024,02,27,06,39,990.21
2024,02,27,06,40,982.26
2024,02,27,06,41,982.26
2024,02,27,06,42,982.26
2024,02,27,06,43,982.26
2024,02,27,06,44,982.26
2024,02,27,06,45,982.26
2024,02,27,06,46,982.26
2024,02,27,06,47,982.26
2024,02,27,06,48,982.26
2024,02,27,06,49,982.26
2024,02,27,06,50,982.26
2024,02,27,06,51,982.26
2024,02,27,06,52,982.26
2024,02,27,06,53,998.65
2024,02,27,06,54,998.65
2024,02,27,06,55,998.65
2024,02,27,06,56,998.61
2024,02,27,06,57,998.61
2024,02,27,06,58,998.61
2024,02,27,06,59,998.61
2024,02,27,07,00,998.61
2024,02,27,07,01,998.61
2024,02,27,07,02,998.61
2024,02,27,07,03,998.61
2024,02,27,07,04,998.61
2024,02,27,07,05,998.61
2024,02,27,07,06,991.57
2024,02,27,07,07,991.91
2024,02,27,07,08,991.91
2024,02,27,07,09,991.91
2024,02,27,07,10,991.91
2024,02,27,07,11,991.91
2024,02,27,07,12,991.91
2024,02,27,07,13,991.91
2024,02,27,07,14,991.91
2024,02,27,07,15,991.91
2024,02,27,07,16,991.91
2024,02,27,07,17,991.91
2024,02,27,07,18,991.91
2024,02,27,07,19,991.91
2024,02,27,07,20,991.91
2024,02,27,07,21,991.91
2024,02,27,07,22,991.91
2024,02,27,07,23,991.91
2024,02,27,07,24,991.91
2024,02,27,07,25,991.91
2024,02,27,07,26,991.91
2024,02,27,07,27,991.91
2024,02,27,07,28,991.91
2024,02,27,07,29,991.91
2024,02,27,07,30,991.91
2024,02,27,07,31,986.02
2024,02,27,07,32,986.02
2024,02,27,07,33,987.47
2024,02,27,07,34,987.47
2024,02,27,07,35,987.47
2024,02,27,07,36,986.90
2024,02,27,07,37,975.55
2024,02,27,07,38,975.55
2024,02,27,07,39,975.55
2024,02,27,07,40,975.55
2024,02,27,07,41,975.55
2024,02,27,07,42,975.55
2024,02,27,07,43,975.55
2024,02,27,07,44,975.55
2024,02,27,07,45,975.55
2024,02,27,07,46,975.55
2024,02,27,07,47,980.97
2024,02,27,07,48,980.97
2024,02,27,07,49,980.97
2024,02,27,07,50,980.97
2024,02,27,07,51,980.97
2024,02,27,07,52,978.07
2024,02,27,07,53,977.92
2024,02,27,07,54,977.92
2024,02,27,07,55,977.92
2024,02,27,07,56,977.92
2024,02,27,07,57,977.92
2024,02,27,07,58,977.92
2024,02,27,07,59,977.92
2024,02,27,08,00,970.20
2024,02,27,08,01,969.73
2024,02,27,08,02,969.73
2024,02,27,08,03,972.06
2024,02,27,08,04,972.06
2024,02,27,08,05,972.06
2024,02,27,08,06,972.06
2024,02,27,08,07,972.06
2024,02,27,08,08,972.06
2024,02,27,08,09,967.29
2024,02,27,08,10,967.29
2024,02,27,08,11,967.29
2024,02,27,08,12,967.29
2024,02,27,08,13,967.29
2024,02,27,08,14,967.29
2024,02,27,08,15,967.29
2024,02,27,08,16,967.29
2024,02,27,08,17,967.29
2024,02,27,08,18,967.29
2024,02,27,08,19,967.29
2024,02,27,08,20,967.29
2024,02,27,08,21,967.29
2024,02,27,08,22,967.29
2024,02,27,08,23,967.29
2024,02,27,08,24,967.29
2024,02,27,08,25,967.29
2024,02,27,08,26,967.29
2024,02,27,08,27,967.29
2024,02,27,08,28,967.29
2024,02,27,08,29,967.29
2024,02,27,08,30,967.29
2024,02,27,08,31,967.29
2024,02,27,08,32,967.29
2024,02,27,08,33,967.29
2024,02,27,08,34,945.85
2024,02,27,08,35,945.85
2024,02,27,08,36,945.85
2024,02,27,08,37,945.85
2024,02,27,08,38,945.85
2024,02,27,08,39,945.85
2024,02,27,08,40,945.85
2024,02,27,08,41,945.85
2024,02,27,08,42,945.85
2024,02,27,08,43,945.85
2024,02,27,08,44,945.85
2024,02,27,08,45,945.85
2024,02,27,08,46,945.85
2024,02,27,08,47,945.85
2024,02,27,08,48,948.19
2024,02,27,08,49,948.19
2024,02,27,08,50,948.19
2024,02,27,08,51,948.19
2024,02,27,08,52,948.19
2024,02,27,08,53,948.19
2024,02,27,08,54,948.19
2024,02,27,08,55,948.19
2024,02,27,08,56,948.19
2024,02,27,08,57,948.19
2024,02,27,08,58,948.19
2024,02,27,08,59,948.19
2024,02,27,09,00,948.19
2024,02,27,09,01,948.19
2024,02,27,09,02,948.19
2024,02,27,09,03,948.19
2024,02,27,09,04,948.19
2024,02,27,09,05,948.19
2024,02,27,09,06,948.19
2024,02,27,09,07,948.19
2024,02,27,09,08,948.19
2024,02,27,09,09,948.19
2024,02,27,09,10,948.19
2024,02,27,09,11,948.19
2024,02,27,09,12,948.19
2024,02,27,09,13,948.19
2024,02,27,09,14,948.19
2024,02,27,09,15,948.19
2024,02,27,09,16,948.19
2024,02,27,09,17,948.19
2024,02,27,09,18,948.19
2024,02,27,09,19,948.19
2024,02,27,09,20,948.19
2024,02,27,09,21,948.19
2024,02,27,09,22,948.19
2024,02,27,09,23,948.19
2024,02,27,09,24,948.19
2024,02,27,09,25,948.19
2024,02,27,09,26,948.19
2024,02,27,09,27,948.19
2024,02,27,09,28,948.19
2024,02,27,09,29,948.19
2024,02,27,09,30,948.19
2024,02,27,09,31,948.19
2024,02,27,09,32,948.19
2024,02,27,09,33,948.19
2024,02,27,09,34,948.19
2024,02,27,09,35,948.19
2024,02,27,09,36,948.19
2024,02,27,09,37,948.19
2024,02,27,09,38,948.19
2024,02,27,09,39,948.19
2024,02,27,09,40,948.19
2024,02,27,09,41,948.19
2024,02,27,09,42,948.19
2024,02,27,09,43,948.19
2024,02,27,09,44,948.19
2024,02,27,09,45,948.19
2024,02,27,09,46,948.19
2024,02,27,09,47,948.19
2024,02,27,09,48,948.19
2024,02,27,09,49,948.19
2024,02,27,09,50,948.19
2024,02,27,09,51,948.19
2024,02,27,09,52,948.19
2024,02,27,09,53,948.19
2024,02,27,09,54,948.19
2024,02,27,09,55,948.19
2024,02,27,09,56,948.19
2024,02,27,09,57,948.19
2024,02,27,09,58,948.19
2024,02,27,09,59,948.19
2024,02,27,10,00,948.19
2024,02,27,10,01,948.19
2024,02,27,10,02,948.19
2024,02,27,10,03,948.19
2024,02,27,10,04,948.19
2024,02,27,10,05,948.19
2024,02,27,10,06,948.19
2024,02,27,10,07,948.19
2024,02,27,10,08,948.19
2024,02,27,10,09,948.19
2024,02,27,10,10,948.19
2024,02,27,10,11,948.19
2024,02,27,10,12,948.19
2024,02,27,10,13,948.19
2024,02,27,10,14,948.19
2024,02,27,10,15,948.19
2024,02,27,10,16,948.19
2024,02,27,10,17,948.19
2024,02,27,10,18,948.19
2024,02,27,10,19,948.19
2024,02,27,10,20,948.19
2024,02,27,10,21,948.19
2024,02,27,10,22,948.19
2024,02,27,10,23,948.19
2024,02,27,10,24,948.19
2024,02,27,10,25,948.19
2024,02,27,10,26,948.19
2024,02,27,10,27,948.19
2024,02,27,10,28,948.19
2024,02,27,10,29,948.19
2024,02,27,10,30,948.19
2024,02,27,10,31,948.19
2024,02,27,10,32,948.19
2024,02,27,10,33,948.19
2024,02,27,10,34,948.19
2024,02,27,10,35,948.19
2024,02,27,10,36,948.19
2024,02,27,10,37,948.19
2024,02,27,10,38,948.19
2024,02,27,10,39,948.19
2024,02,27,10,40,948.19
2024,02,27,10,41,948.19
2024,02,27,10,42,948.19
2024,02,27,10,43,948.19
2024,02,27,10,44,948.19
2024,02,27,10,45,948.19
2024,02,27,10,46,948.19
2024,02,27,10,47,948.19
2024,02,27,10,48,948.19
2024,02,27,10,49,948.19
2024,02,27,10,50,948.19
2024,02,27,10,51,948.19
2024,02,27,10,52,948.19
2024,02,27,10,53,948.19
2024,02,27,10,54,948.19
2024,02,27,10,55,948.19
2024,02,27,10,56,948.19
2024,02,27,10,57,948.19
2024,02,27,10,58,948.19
2024,02,27,10,59,948.19
2024,02,27,11,00,948.19
2024,02,27,11,01,948.19
2024,02,27,11,02,948.19
2024,02,27,11,03,948.19
2024,02,27,11,04,948.19
2024,02,27,11,05,948.19
2024,02,27,11,06,948.19
2024,02,27,11,07,948.19
2024,02,27,11,08,948.19
2024,02,27,11,09,948.19
2024,02,27,11,10,948.19
2024,02,27,11,11,948.19
2024,02,27,11,12,948.19
2024,02,27,11,13,948.19
2024,02,27,11,14,948.19
2024,02,27,11,15,948.19
2024,02,27,11,16,948.19
2024,02,27,11,17,948.19
2024,02,27,11,18,948.19
2024,02,27,11,19,948.19
2024,02,27,11,20,948.19
2024,02,27,11,21,948.19
2024,02,27,11,22,948.19
2024,02,27,11,23,948.19
2024,02,27,11,24,948.19
2024,02,27,11,25,948.19
2024,02,27,11,26,948.19
2024,02,27,11,27,948.19
2024,02,27,11,28,948.19
2024,02,27,11,29,948.19
2024,02,27,11,30,948.19
2024,02,27,11,31,948.19
2024,02,27,11,32,948.19
2024,02,27,11,33,948.19
2024,02,27,11,34,948.19
2024,02,27,11,35,948.19
2024,02,27,11,36,948.19
2024,02,27,11,37,948.19
2024,02,27,11,38,948.19
2024,02,27,11,39,948.19
2024,02,27,11,40,948.19
2024,02,27,11,41,948.19
2024,02,27,11,42,948.19
2024,02,27,11,43,948.19
2024,02,27,11,44,948.19
2024,02,27,11,45,948.19
2024,02,27,11,46,948.19
2024,02,27,11,47,948.19
2024,02,27,11,48,948.19
2024,02,27,11,49,948.19
2024,02,27,11,50,948.19
2024,02,27,11,51,948.19
2024,02,27,11,52,948.19
2024,02,27,11,53,948.19
2024,02,27,11,54,948.19
2024,02,27,11,55,948.19
2024,02,27,11,56,948.19
2024,02,27,11,57,948.19
2024,02,27,11,58,948.19
2024,02,27,11,59,948.19
2024,02,27,12,00,948.19
2024,02,27,12,01,948.19
2024,02,27,12,02,948.19
2024,02,27,12,03,948.19
2024,02,27,12,04,948.19
2024,02,27,12,05,948.19
2024,02,27,12,06,948.19
2024,02,27,12,07,948.19
2024,02,27,12,08,948.19
2024,02,27,12,09,948.19
2024,02,27,12,10,948.19
2024,02,27,12,11,948.19
2024,02,27,12,12,948.19
2024,02,27,12,13,948.19
2024,02,27,12,14,948.19
2024,02,27,12,15,948.19
2024,02,27,12,16,948.19
2024,02,27,12,17,948.19
2024,02,27,12,18,948.19
2024,02,27,12,19,948.19
2024,02,27,12,20,948.19
2024,02,27,12,21,948.19
2024,02,27,12,22,948.19
2024,02,27,12,23,948.19
2024,02,27,12,24,948.19
2024,02,27,12,25,948.19
2024,02,27,12,26,948.19
2024,02,27,12,27,948.19
2024,02,27,12,28,948.19
2024,02,27,12,29,948.19
2024,02,27,12,30,948.19
2024,02,27,12,31,948.19
2024,02,27,12,32,948.19
2024,02,27,12,33,948.19
2024,02,27,12,34,948.19
2024,02,27,12,35,948.19
2024,02,27,12,36,948.19
2024,02,27,12,37,948.19
2024,02,27,12,38,948.19
2024,02,27,12,39,948.19
2024,02,27,12,40,948.19
2024,02,27,12,41,948.19
2024,02,27,12,42,948.19
2024,02,27,12,43,948.19
2024,02,27,12,44,948.19
2024,02,27,12,45,948.19
2024,02,27,12,46,948.19
2024,02,27,12,47,948.19
2024,02,27,12,48,948.19
2024,02,27,12,49,948.19
2024,02,27,12,50,948.19
2024,02,27,12,51,948.19
2024,02,27,12,52,948.19
2024,02,27,12,53,948.19
2024,02,27,12,54,948.19
2024,02,27,12,55,948.19
2024,02,27,12,56,948.19
2024,02,27,12,57,948.19
2024,02,27,12,58,948.19
2024,02,27,12,59,948.19
2024,02,27,13,00,948.19
2024,02,27,13,01,948.19
2024,02,27,13,02,948.19
2024,02,27,13,03,948.19
2024,02,27,13,04,948.19
2024,02,27,13,05,948.19
2024,02,27,13,06,948.19
2024,02,27,13,07,948.19
2024,02,27,13,08,948.19
2024,02,27,13,09,948.19
2024,02,27,13,10,948.19
2024,02,27,13,11,948.19
2024,02,27,13,12,948.19
2024,02,27,13,13,948.19
2024,02,27,13,14,948.19
2024,02,27,13,15,948.19
2024,02,27,13,16,948.19
2024,02,27,13,17,948.19
2024,02,27,13,18,948.19
2024,02,27,13,19,948.19
2024,02,27,13,20,948.19
2024,02,27,13,21,948.19
2024,02,27,13,22,948.19
2024,02,27,13,23,948.19
2024,02,27,13,24,948.19
2024,02,27,13,25,948.19
2024,02,27,13,26,948.19
2024,02,27,13,27,948.19
2024,02,27,13,28,948.19
2024,02,27,13,29,948.19
2024,02,27,13,30,948.19
2024,02,27,13,31,948.19
2024,02,27,13,32,948.19
2024,02,27,13,33,948.19
2024,02,27,13,34,948.19
2024,02,27,13,35,948.19
2024,02,27,13,36,948.19
2024,02,27,13,37,948.19
2024,02,27,13,38,948.19
2024,02,27,13,39,948.19
2024,02,27,13,40,948.19
2024,02,27,13,41,948.19
2024,02,27,13,42,948.19
2024,02,27,13,43,948.19
2024,02,27,13,44,948.19
2024,02,27,13,45,948.19
2024,02,27,13,46,948.19
2024,02,27,13,47,948.19
2024,02,27,13,48,948.19
2024,02,27,13,49,948.19
2024,02,27,13,50,948.19
2024,02,27,13,51,948.19
2024,02,27,13,52,948.19
2024,02,27,13,53,948.19
2024,02,27,13,54,948.19
2024,02,27,13,55,948.19
2024,02,27,13,56,948.19
2024,02,27,13,57,948.19
2024,02,27,13,58,948.19
2024,02,27,13,59,948.19
2024,02,27,14,00,948.19
2024,02,27,14,01,948.19
2024,02,27,14,02,948.19
2024,02,27,14,03,948.19
2024,02,27,14,04,948.19
2024,02,27,14,05,948.19
2024,02,27,14,06,948.19
2024,02,27,14,07,948.19
2024,02,27,14,08,948.19
2024,02,27,14,09,948.19
2024,02,27,14,10,948.19
2024,02,27,14,11,948.19
2024,02,27,14,12,948.19
2024,02,27,14,13,948.19
2024,02,27,14,14,948.19
2024,02,27,14,15,948.19
2024,02,27,14,16,948.19
2024,02,27,14,17,948.19
2024,02,27,14,18,948.19
2024,02,27,14,19,948.19
2024,02,27,14,20,948.19
2024,02,27,14,21,948.19
2024,02,27,14,22,948.19
2024,02,27,14,23,948.19
2024,02,27,19,00,904.27
2024,02,27,19,01,904.27
2024,02,27,19,02,904.27
2024,02,27,19,03,904.27
2024,02,27,19,04,904.27
2024,02,27,19,05,904.27
2024,02,27,19,06,904.27
2024,02,27,19,07,904.27
2024,02,27,19,08,904.27
2024,02,27,19,09,904.27
2024,02,27,19,10,904.27
2024,02,27,19,11,904.27
2024,02,27,19,12,904.27
2024,02,27,19,13,904.27
2024,02,27,19,14,904.27
2024,02,27,19,15,904.27
2024,02,27,19,16,904.27
2024,02,27,19,17,904.27
2024,02,27,19,18,904.27
2024,02,27,19,19,904.27
2024,02,27,19,20,904.27
2024,02,27,19,21,904.27
2024,02,27,19,22,904.27
2024,02,27,19,23,904.27
2024,02,27,19,24,904.27
2024,02,27,19,25,904.27
2024,02,27,19,26,904.27
2024,02,27,19,27,904.27
2024,02,27,19,28,904.27
2024,02,27,19,29,904.27
2024,02,27,19,30,904.27
2024,02,27,19,31,904.27
2024,02,27,19,32,904.27
2024,02,27,19,33,904.27
2024,02,27,19,34,904.27
2024,02,27,19,35,904.27
2024,02,27,19,36,904.27
2024,02,27,19,37,932.92
2024,02,27,19,38,932.92
2024,02,27,19,39,932.92
2024,02,27,19,40,932.92
2024,02,27,19,41,932.92
2024,02,27,19,42,932.92
2024,02,27,19,43,932.92
2024,02,27,19,44,932.92
2024,02,27,19,45,932.92
2024,02,27,19,46,932.92
2024,02,27,19,47,932.92
2024,02,27,19,48,932.92
2024,02,27,19,49,932.92
2024,02,27,19,50,932.92
2024,02,27,19,51,932.92
2024,02,27,19,52,932.92
2024,02,27,19,53,932.92
2024,02,27,19,54,932.92
2024,02,27,19,55,932.92
2024,02,27,19,56,932.92
2024,02,27,19,57,932.92
2024,02,27,19,58,932.92
2024,02,27,19,59,932.92
2024,02,27,20,00,932.92
2024,02,27,20,01,932.92
2024,02,27,20,02,932.92
2024,02,27,20,03,932.92
2024,02,27,20,04,932.92
2024,02,27,20,05,957.24
2024,02,27,20,06,958.52
2024,02,27,20,07,958.52
2024,02,27,20,08,958.52
2024,02,27,20,09,958.52
2024,02,27,20,10,958.52
2024,02,27,20,11,958.52
2024,02,27,20,12,958.52
2024,02,27,20,13,958.52
2024,02,27,20,14,958.52
2024,02,27,20,15,958.52
2024,02,27,20,16,958.52
2024,02,27,20,17,958.52
2024,02,27,20,18,958.52
2024,02,27,20,19,958.52
2024,02,27,20,20,958.52
2024,02,27,20,21,958.52
2024,02,27,20,22,958.52
2024,02,27,20,23,958.52
2024,02,27,20,24,970.88
2024,02,27,20,25,970.88
2024,02,27,20,26,970.88
2024,02,27,20,27,970.88
2024,02,27,20,28,970.88
2024,02,27,20,29,970.88
2024,02,27,20,30,968.95
2024,02,27,20,31,968.85
2024,02,27,20,32,968.85
2024,02,27,20,33,968.85
2024,02,27,20,34,968.85
2024,02,27,20,35,955.82
2024,02,27,20,36,955.13
2024,02,27,20,37,955.13
2024,02,27,20,38,955.13
2024,02,27,20,39,955.13
2024,02,27,20,40,955.13
2024,02,27,20,41,955.13
2024,02,27,20,42,972.70
2024,02,27,20,43,973.62
2024,02,27,20,44,973.62
2024,02,27,20,45,973.62
2024,02,27,20,46,973.62
2024,02,27,20,47,973.62
2024,02,27,20,48,973.62
2024,02,27,20,49,973.62
2024,02,27,20,50,973.62
2024,02,27,20,51,973.62
2024,02,27,20,52,973.62
2024,02,27,20,53,973.62
2024,02,27,20,54,973.62
2024,02,27,20,55,973.62
2024,02,27,20,56,973.62
2024,02,27,20,57,973.62
2024,02,27,20,58,973.62
2024,02,27,20,59,969.40
2024,02,27,21,00,969.18
2024,02,27,21,01,969.18
2024,02,27,21,02,969.18
2024,02,27,21,03,969.18
2024,02,27,21,04,969.18
2024,02,27,21,05,969.18
2024,02,27,21,06,969.18
2024,02,27,21,07,969.18
2024,02,27,21,08,969.18
2024,02,27,21,09,969.18
2024,02,27,21,10,969.31
2024,02,27,21,11,969.32
2024,02,27,21,12,969.32
2024,02,27,21,13,969.32
2024,02,27,21,14,969.32
2024,02,27,21,15,969.32
2024,02,27,21,16,969.32
2024,02,27,21,17,969.32
2024,02,27,21,18,969.32
2024,02,27,21,19,971.28
2024,02,27,21,20,971.28
2024,02,27,21,21,971.28
2024,02,27,21,22,971.28
2024,02,27,21,23,971.28
2024,02,27,21,24,971.28
2024,02,27,21,25,965.43
2024,02,27,21,26,965.44
2024,02,27,21,27,965.88
2024,02,27,21,28,966.32
2024,02,27,21,29,966.34